Hourly Weather Roundup
Issued by NWS

Current Version | Previous Version | Text Only | Print | Product List | Glossary On
Versions: 1 2 3 4 5 6 7 8 9 10 11 12 13 14 15 16 17 18 19 20 21 22 23 24 25 26 27 28 29 30 31 32 33 34 35 36 37 38 39 40 41 42 43 44 45 46 47 48 49 50
000
NZUS43 KILX 270010
HWRCRS

CRS HOURLY WEATHER ROUNDUP
NATIONAL WEATHER SERVICE, LINCOLN IL
700 PM CDT THU MAY 26 2016


CITY           SKY/WX    TMP DP  RH WIND       PRES   REMARKS
CHAMPAIGN      CLOUDY    78  67  68 S13       29.90R HX  80
LAWRENCEVILLE  CLOUDY    71  67  87 S12       29.93R
PEORIA         MOSUNNY   81  65  58 S8        29.83R HX  83
SPRINGFIELD    CLOUDY    79  69  71 S13       29.86R HX  81
$$


CITY           SKY/WX    TMP DP  RH WIND       PRES   REMARKS
BLOOMINGTON    MOSUNNY   78  72  82 S10       29.88R HX  80
DECATUR        CLOUDY    78  66  66 S12       29.89R HX  80
EFFINGHAM      CLOUDY    74  66  75 S6        29.93R
FLORA          CLOUDY    74  65  73 S3        29.92R
GALESBURG      CLOUDY    80  64  58 SE3       29.83S HX  81
JACKSONVILLE   PTSUNNY   78  67  68 S8        29.82F HX  81
LACON          MOSUNNY   80  63  55 CALM      29.83R HX  81
LINCOLN        SUNNY     78  70  76 S9        29.86R HX  81
LITCHFIELD     SUNNY     73  64  73 S12       29.88S

CITY           SKY/WX    TMP DP  RH WIND       PRES   REMARKS
MACOMB         CLOUDY    79  69  70 SE6       29.83F HX  82
MATTOON        MOSUNNY   73  64  73 S9        29.91R
MOLINE         CLOUDY    83  63  50 S5        29.81S HX  84
OLNEY          CLOUDY    72  64  78 SE5       29.93R
PARIS          CLOUDY    74  67  79 S7        29.93R
PONTIAC        MOSUNNY   85  67  55 S12       29.86R HX  87
QUINCY         CLOUDY    79  68  69 SE5       29.82R HX  81
RANTOUL        CLOUDY    81  69  67 S9        29.90R HX  84
ROBINSON       PTSUNNY   70  65  84 SE7       29.93R
TAYLORVILLE    SUNNY     74  67  78 S13       29.88R
TERRE HAUTE    PTSUNNY   73  64  73 S12G21    29.93R
$$


CITY           SKY/WX    TMP DP  RH WIND       PRES   REMARKS
BURLINGTON     CLOUDY    77  69  76 CALM      29.83R
CHICAGO        PTSUNNY   81  63  54 W7        29.83R HX  82
DES MOINES     TSTM      65  59  81 SW32      29.94R VSB 3/4
EVANSVILLE     CLOUDY    70  64  81 E5        29.92R
INDIANAPOLIS   CLOUDY    73  65  75 S12       29.91F
KANSAS CITY    TSTM      63  59  87 NE20G25   29.82F
MILWAUKEE      PTSUNNY   83  55  38 W8        29.83R HX  82
ST LOUIS       PTSUNNY   78  64  61 S14       29.86F HX  80
$$





USA.gov is the U.S. government's official web portal to all federal, state and local government web resources and services.